Stations météo

réclame
Mon MeteoGroup
Harsfjarden, Suède (2489): Température de l'air & dewpoint: 12.02.2019 19:00:00 - 18.02.2019 19:00:00 (CET)Harsfjarden, Suède (2489): Vitesse du vent & gusts: 12.02.2019 19:00:00 - 18.02.2019 19:00:00 (CET)Harsfjarden, Suède (2489): Direction du vent: 12.02.2019 19:00:00 - 18.02.2019 19:00:00 (CET)Harsfjarden, Suède (2489): reduced air pressure: 12.02.2019 19:00:00 - 18.02.2019 19:00:00 (CET)Harsfjarden, Suède (2489): visibility: 12.02.2019 19:00:00 - 18.02.2019 19:00:00 (CET)Harsfjarden, Suède (2489): Quantités de précipitations: 12.02.2019 19:00:00 - 18.02.2019 19:00:00 (CET)
Date & Time tt [°C] td [°C] ff [km/h] ff [knt] fx [km/h] fx [knt] dd ppp [hPa] vv [km] rr [mm]
18.02.2019 19:00:00 2,4 2,4 11 6 22 12 SW 1010,5 1,4 0,0
18.02.2019 18:00:00 2,4 2,4 11 6 25 14 SW 1010,9 0,8 0,0
18.02.2019 17:00:00 3,2 3,2 14 8 29 16 SW 1011,3 4,5 0,0
18.02.2019 16:00:00 3,3 3,3 11 6 36 19 SSW 1011,4 5 0,0
18.02.2019 15:00:00 3,9 3,6 22 12 47 25 SSW 1012,1 7 0,0
18.02.2019 14:00:00 4,3 3,7 29 16 47 25 SW 1013,0 10 0,0
18.02.2019 13:00:00 4,5 4,2 25 14 47 25 SW 1013,6 12 0,0
18.02.2019 12:00:00 2,9 2,9 25 14 32 18 S 1014,7 8 0,0
18.02.2019 11:00:00 1,8 1,7 18 10 25 14 S 1015,8 8 0,0
18.02.2019 10:00:00 0,7 - 14 8 29 16 SW 1017,0 1,8 0,0
18.02.2019 09:00:00 1,7 - 22 12 25 14 S 1017,4 0,5 0,0
18.02.2019 08:00:00 1,2 1,2 11 6 22 12 S 1017,8 0,7 0,0
18.02.2019 07:00:00 1,3 1,3 18 10 22 12 S 1018,2 0,5 0,0
18.02.2019 06:00:00 1,7 1,7 18 10 22 12 S 1018,7 0,4 0,0
18.02.2019 05:00:00 2,2 2,2 14 8 18 10 S 1019,3 0,6 0,0
18.02.2019 04:00:00 2,0 1,7 11 6 14 8 S 1019,7 13 0,0
18.02.2019 03:00:00 1,9 1,2 7 4 14 8 S 1020,3 40 0,0
18.02.2019 02:00:00 2,0 0,8 11 6 14 8 SSW 1020,9 45 0,0
18.02.2019 01:00:00 1,8 -0,3 7 4 11 6 S 1021,1 45 0,0
18.02.2019 00:00:00 1,6 -0,2 7 4 11 6 S 1021,3 50 0,0
17.02.2019 23:00:00 1,3 -0,3 7 4 11 6 S 1021,4 50 0,0
17.02.2019 22:00:00 1,2 -1,9 4 2 7 4 S 1021,7 50 0,0
17.02.2019 21:00:00 0,9 -1,3 4 2 7 4 S 1021,7 50 0,0
17.02.2019 20:00:00 1,0 -1,6 0 0 4 2 N 1021,7 50 0,0
17.02.2019 19:00:00 1,0 -1,7 0 0 4 2 N 1021,8 50 0,0
17.02.2019 18:00:00 1,7 -2,3 0 0 7 4 N 1021,5 45 0,0
17.02.2019 17:00:00 2,4 -2,5 4 2 7 4 SW 1021,0 50 0,0
17.02.2019 16:00:00 3,3 -2,9 4 2 7 4 WSW 1021,1 50 0,0
17.02.2019 15:00:00 3,6 -2,6 4 2 11 6 S 1020,8 45 0,0
17.02.2019 14:00:00 3,1 -1,5 7 4 11 6 S 1020,7 45 0,0
17.02.2019 13:00:00 4,3 -2,6 4 2 11 6 S 1020,4 40 0,0
17.02.2019 12:00:00 3,8 -3,7 7 4 14 8 N 1020,1 40 0,0
17.02.2019 11:00:00 3,8 -3,1 4 2 14 8 N 1019,7 45 0,0
17.02.2019 10:00:00 2,6 -2,3 7 4 14 8 NW 1019,4 45 0,0
17.02.2019 09:00:00 1,4 -2,2 7 4 11 6 W 1019,1 45 0,0
17.02.2019 08:00:00 -0,2 -2,3 7 4 14 8 N 1018,2 50 0,0
17.02.2019 07:00:00 -0,2 -1,9 7 4 11 6 NW 1017,6 45 0,0
17.02.2019 06:00:00 -0,1 -1,5 7 4 18 10 WNW 1017,1 45 0,0
17.02.2019 05:00:00 1,1 -0,5 7 4 18 10 NNW 1016,8 40 0,0
17.02.2019 04:00:00 1,7 0,4 7 4 18 10 NW 1016,2 26 0,0
17.02.2019 03:00:00 2,3 1,0 7 4 18 10 WNW 1015,7 23 0,0
17.02.2019 02:00:00 2,4 1,4 7 4 18 10 NW 1014,8 16 0,0
17.02.2019 01:00:00 3,1 2,1 7 4 18 10 NW 1014,0 14 0,0
17.02.2019 00:00:00 3,7 2,7 11 6 22 12 WNW 1013,1 13 0,0
16.02.2019 23:00:00 4,3 3,1 11 6 22 12 WNW 1012,9 13 0,0
16.02.2019 22:00:00 4,7 3,0 7 4 18 10 W 1012,2 15 0,0
16.02.2019 21:00:00 5,7 3,4 11 6 32 18 W 1011,3 16 0,0
16.02.2019 20:00:00 6,5 3,8 14 8 29 16 WNW 1010,9 16 0,0
16.02.2019 19:00:00 6,9 3,7 14 8 29 16 WNW 1010,5 19 0,0
16.02.2019 18:00:00 7,5 2,2 11 6 18 10 NW 1009,6 40 0,0
16.02.2019 17:00:00 8,1 1,3 7 4 25 14 W 1008,1 45 0,0
16.02.2019 16:00:00 9,3 1,0 14 8 25 14 WSW 1007,6 45 0,0
16.02.2019 15:00:00 10,0 1,2 18 10 29 16 WSW 1008,5 45 0,0
16.02.2019 14:00:00 9,1 1,3 18 10 25 14 SW 1009,1 45 0,0
16.02.2019 13:00:00 8,4 0,8 11 6 25 14 SW 1009,8 45 0,0
16.02.2019 12:00:00 7,3 0,3 18 10 25 14 SSW 1010,7 45 0,0
16.02.2019 11:00:00 6,2 -0,1 14 8 22 12 SSW 1011,5 45 0,0
16.02.2019 10:00:00 5,2 -0,6 14 8 22 12 SSW 1012,0 40 0,0
16.02.2019 09:00:00 4,9 -1,3 14 8 18 10 SW 1012,7 45 0,0
16.02.2019 08:00:00 3,3 -1,5 11 6 14 8 SW 1013,1 45 0,0
16.02.2019 07:00:00 3,1 -1,1 11 6 14 8 SW 1013,4 45 0,0
16.02.2019 06:00:00 3,3 -0,7 7 4 18 10 SW 1013,7 45 0,0
16.02.2019 05:00:00 4,0 -0,6 11 6 22 12 SW 1014,7 45 0,0
16.02.2019 04:00:00 3,6 -0,2 11 6 22 12 SW 1015,2 35 0,0
16.02.2019 03:00:00 4,3 -0,1 11 6 22 12 SW 1016,2 45 0,0
16.02.2019 02:00:00 5,3 -0,1 14 8 22 12 WSW 1016,9 45 0,0
16.02.2019 01:00:00 5,4 -0,7 11 6 22 12 SW 1017,7 50 0,0
16.02.2019 00:00:00 5,7 -0,2 11 6 25 14 WSW 1017,9 50 0,0
15.02.2019 23:00:00 5,8 0,1 11 6 29 16 WSW 1018,3 50 0,0
15.02.2019 22:00:00 5,6 1,1 11 6 22 12 W 1018,8 45 0,0
15.02.2019 21:00:00 4,9 1,6 11 6 22 12 WSW 1019,4 45 0,0
15.02.2019 20:00:00 5,3 2,3 11 6 25 14 W 1019,8 50 0,0
15.02.2019 19:00:00 5,6 2,9 14 8 25 14 W 1020,1 50 0,0
15.02.2019 18:00:00 6,1 3,8 14 8 22 12 W 1020,4 50 0,0
15.02.2019 17:00:00 6,4 4,2 7 4 22 12 W 1020,7 45 0,0
15.02.2019 16:00:00 7,4 4,9 11 6 22 12 WSW 1020,9 45 0,0
15.02.2019 15:00:00 8,1 5,0 14 8 25 14 WSW 1021,4 45 0,0
15.02.2019 14:00:00 8,0 4,9 14 8 25 14 W 1021,9 50 0,0
15.02.2019 13:00:00 8,4 5,0 14 8 22 12 W 1022,2 45 0,0
15.02.2019 12:00:00 7,8 4,7 11 6 25 14 W 1022,4 45 0,0
15.02.2019 11:00:00 6,7 4,5 14 8 25 14 W 1022,8 45 0,0
15.02.2019 10:00:00 5,9 4,4 11 6 25 14 W 1022,9 45 0,0
15.02.2019 09:00:00 5,1 4,2 14 8 25 14 W 1022,7 45 0,0
15.02.2019 08:00:00 4,4 3,8 14 8 25 14 W 1022,6 40 0,0
15.02.2019 07:00:00 4,2 3,8 11 6 25 14 W 1022,1 28 0,0
15.02.2019 06:00:00 4,3 3,6 14 8 29 16 W 1022,3 27 0,0
15.02.2019 05:00:00 4,6 3,7 14 8 32 18 W 1021,9 26 0,0
15.02.2019 04:00:00 4,7 3,7 11 6 25 14 W 1022,1 30 0,0
15.02.2019 03:00:00 4,7 3,5 14 8 25 14 W 1021,9 30 0,0
15.02.2019 02:00:00 4,8 3,5 14 8 32 18 W 1021,9 35 0,0
15.02.2019 01:00:00 5,0 3,5 14 8 29 16 W 1021,8 35 0,0
15.02.2019 00:00:00 5,2 3,4 11 6 29 16 WNW 1021,5 40 0,0
14.02.2019 23:00:00 5,5 3,3 18 10 32 18 WNW 1021,1 40 0,0
14.02.2019 22:00:00 5,7 3,4 14 8 32 18 W 1020,7 40 0,0
14.02.2019 21:00:00 6,0 3,7 18 10 32 18 WNW 1020,3 40 0,0
14.02.2019 20:00:00 6,2 3,9 14 8 36 19 W 1020,2 45 0,0
14.02.2019 19:00:00 6,4 4,1 22 12 40 21 W 1018,9 45 0,0
14.02.2019 18:00:00 6,6 4,4 22 12 36 19 WSW 1019,1 40 0,0
14.02.2019 17:00:00 6,9 4,6 22 12 36 19 WSW 1019,5 40 0,0
14.02.2019 16:00:00 7,3 4,9 22 12 32 18 W 1020,3 40 0,0
14.02.2019 15:00:00 7,3 4,9 14 8 32 18 WSW 1020,3 45 0,0
14.02.2019 14:00:00 7,2 5,0 18 10 25 14 WSW 1020,9 45 0,0
14.02.2019 13:00:00 6,6 4,9 14 8 22 12 WSW 1021,4 45 0,0
14.02.2019 12:00:00 5,8 4,6 11 6 25 14 WSW 1022,4 45 0,0
14.02.2019 11:00:00 4,7 4,0 11 6 22 12 WSW 1022,9 45 0,0
14.02.2019 10:00:00 3,5 2,9 11 6 25 14 W 1023,3 23 0,0
14.02.2019 09:00:00 2,1 1,8 14 8 25 14 W 1022,9 14 0,0
14.02.2019 08:00:00 1,6 0,3 11 6 22 12 W 1023,2 16 0,0
14.02.2019 07:00:00 0,6 -1,0 7 4 14 8 WSW 1022,7 17 0,0
14.02.2019 06:00:00 0,1 -1,7 4 2 11 6 SSW 1022,7 22 0,0
14.02.2019 05:00:00 1,6 -1,1 7 4 14 8 W 1022,8 26 0,0
14.02.2019 04:00:00 2,0 -1,4 4 2 14 8 W 1022,7 40 0,0
14.02.2019 03:00:00 2,5 -1,7 7 4 14 8 W 1022,4 45 0,0
14.02.2019 02:00:00 2,9 -1,3 7 4 14 8 WNW 1022,0 45 0,0
14.02.2019 01:00:00 1,0 -1,6 7 4 11 6 W 1021,3 40 0,0
14.02.2019 00:00:00 4,9 -0,9 7 4 18 10 WNW 1020,7 45 0,0
13.02.2019 23:00:00 5,8 -0,7 7 4 25 14 NW 1020,1 45 0,0
13.02.2019 22:00:00 6,4 -0,5 11 6 25 14 NNW 1018,8 45 0,0
13.02.2019 21:00:00 6,6 -0,6 11 6 36 19 NW 1018,5 45 0,0
13.02.2019 20:00:00 7,1 -0,1 18 10 32 18 NW 1017,8 45 0,0
13.02.2019 19:00:00 6,8 0,7 18 10 36 19 WNW 1017,0 50 0,0
13.02.2019 18:00:00 6,3 1,4 18 10 29 16 WNW 1016,2 45 0,0
13.02.2019 17:00:00 6,3 1,6 18 10 29 16 W 1015,3 50 0,0
13.02.2019 16:00:00 6,8 1,9 14 8 25 14 W 1014,6 45 0,0
13.02.2019 15:00:00 7,4 1,7 14 8 25 14 W 1014,3 50 0,0
13.02.2019 14:00:00 9,1 0,5 11 6 25 14 W 1013,2 45 0,0
13.02.2019 13:00:00 8,6 0,5 14 8 36 19 NW 1012,7 45 0,0
13.02.2019 12:00:00 7,5 1,8 14 8 32 18 NW 1011,7 45 0,0
13.02.2019 11:00:00 6,3 2,0 18 10 40 21 NW 1010,6 45 0,0
13.02.2019 10:00:00 5,4 2,7 18 10 36 19 NW 1009,2 45 0,0
13.02.2019 09:00:00 4,4 3,2 14 8 29 16 WNW 1008,1 45 0,0
13.02.2019 08:00:00 4,0 3,6 14 8 29 16 WNW 1006,6 45 0,0
13.02.2019 07:00:00 3,7 3,6 11 6 25 14 W 1005,6 45 0,1
13.02.2019 06:00:00 2,8 2,8 14 8 22 12 W 1005,7 12 0,2
13.02.2019 05:00:00 1,6 1,6 14 8 22 12 WSW 1006,2 8 0,0
13.02.2019 04:00:00 0,9 0,8 11 6 22 12 SW 1006,8 4,6 0,0
13.02.2019 03:00:00 0,6 0,5 14 8 29 16 SW 1008,2 7 0,0
13.02.2019 02:00:00 0,3 0,3 18 10 36 19 SW 1010,6 45 0,2
13.02.2019 01:00:00 0,3 0,3 22 12 36 19 SW 1011,8 40 0,4
13.02.2019 00:00:00 0,1 0,0 14 8 22 12 SW 1014,0 1,2 0,4
12.02.2019 23:00:00 -0,4 -2,6 11 6 22 12 WSW 1015,4 4,9 0,0
12.02.2019 22:00:00 -0,8 -5,6 11 6 18 10 WSW 1016,2 50 0,0
12.02.2019 21:00:00 -1,1 -6,2 11 6 18 10 WSW 1017,0 50 0,0
12.02.2019 20:00:00 -1,1 -6,3 7 4 18 10 WSW 1017,6 45 0,0
12.02.2019 19:00:00 -1,1 -6,3 11 6 18 10 WSW 1018,0 50 0,0

tt = Température de l'air
td = dewpoint
ff = Vitesse du vent
fx = gusts
dd = Direction du vent
ppp = reduced air pressure
vv = visibility
rr = Quantités de précipitations

stations d'obs. à proximité